Regional Weather Roundup
Issued by NWS

Home | Current Version | Previous Version | Graphics & Text | Print | Product List | Glossary On
Versions: 1 2 3 4 5 6 7 8 9 10 11 12 13 14 15 16 17 18 19 20 21 22 23 24 25 26 27 28 29 30 31 32 33 34 35 36 37 38 39 40 41 42 43 44 45 46 47 48 49 50
000
ASUS43 KDMX 221306
RWRIA

WEATHER ROUNDUP FOR IOWA
NATIONAL WEATHER SERVICE DES MOINES IA
700 AM CST MON JAN 22 2018

NOTE: "FAIR" INDICATES FEW OR NO CLOUDS BELOW 12,000 FEET WITH NO
SIGNIFICANT WEATHER AND/OR OBSTRUCTIONS TO VISIBILITY.

* - THESE STATIONS ARE NOT NWS STATIONS...THUS NOT UNDER NWS
QUALITY CONTROL.  THEY ALSO DO NOT REPORT WEATHER SUCH
AS PRECIPITATION OR FOG.

IAZ001>003-012>014-020>022-031>034-043>046-221400-
   NORTHWEST IOWA

CITY           SKY/WX    TMP DP  RH WIND       PRES   REMARKS
CARROLL *      MIX PCPN  36  36 100 NE26G36   29.41F WCI  23
CHEROKEE *     CLOUDY    33  33  98 NE29G45   29.50S WCI  20
DENISON *      MIX PCPN  34  34 100 NE24G35   29.41F WCI  21
LE MARS *      LGT RAIN  32  32 100 N26G43    29.53R WCI  18
ORANGE CITY *  LGT SNOW  32  32 100 N29G38    29.53F VSB 3/4 WCI  18
SHELDON *      MIX PCPN  30  30 100 N35G44    29.54F VSB 1/4 WCI  14
SIOUX CITY     LGT SNOW  33  32  96 N18       29.58S VSB 1   WCI  22
SPENCER        SNOW      32  31  96 NE36G51   29.54F VSB 1/2 WCI  16
STORM LAKE *   MIX PCPN  34  32  93 NE37G47   29.47S WCI  19
$$

IAZ055>058-069>071-079>083-090>094-221400-
   SOUTHWEST IOWA

CITY           SKY/WX    TMP DP  RH WIND       PRES   REMARKS
ATLANTIC *     RAIN      36  36 100 W5        29.41R WCI  32
AUDUBON *      LGT RAIN  36  34  93 NE16G23   29.40S WCI  26
CLARINDA *     MOCLDY    36  36 100 N9          N/A  WCI  29
COUNCIL BLFS * LGT SNOW  34  34 100 N8        29.42F VSB 3/4 WCI  27
CRESTON *      FOG       37  37 100 N3G14     29.37S VSB 1/4
HARLAN  *      MIX PCPN  36  36 100 E8G23     29.47R WCI  29
LAMONI         CLOUDY    49  47  93 S14G22    29.35F
RED OAK *      CLOUDY    36  36 100 NE12      29.38F WCI  27
SHENANDOAH *   CLOUDY    36  36 100 N5        29.39R WCI  32
$$

IAZ047>049-059>061-072>074-084-221400-
   CENTRAL IOWA

CITY           SKY/WX    TMP DP  RH WIND       PRES   REMARKS
AMES           CLOUDY    38  38 100 NE13      29.42F WCI  30
ANKENY *       CLOUDY    39  39 100 NE12      29.41F WCI  32
BOONE *        CLOUDY    37  37 100 NE20      29.41F WCI  27
CHARITON *     MOCLDY    48  48 100 SE14G22   29.38S
DES MOINES     FOG       40  39  97 NE14      29.37F VSB 1/2 WCI  32
GRINNELL*      CLOUDY    40  39  99 NE17      29.42F WCI  31
KNOXVILLE *    FOG       45  45 100 E8        29.37F VSB 1/4
MARSHALLTOWN   CLOUDY    38  37  97 E20       29.42F WCI  28
NEWTON *       CLOUDY    41  41 100 E15       29.40F
PELLA *        CLOUDY    43  43  99 E6        29.41F FOG
PERRY *        DRIZZLE   38  38  99 NE21      29.39F WCI  28
$$

IAZ004>006-015-016-023>025-035-036-221400-
   NORTH CENTRAL IOWA

CITY           SKY/WX    TMP DP  RH WIND       PRES   REMARKS
ALGONA *       LGT SNOW  34 N/A N/A NE31G39   29.52F WCI  20
CLARION *      CLOUDY    36  36 100 NE31G40   29.46F WCI  22
ESTHERVILLE    FOG       30  30 100 N33G44    29.57F VSB 1/2 WCI  14
FORT DODGE *   CLOUDY    35  34  96 NE21G29   29.46F WCI  24
MASON CITY     LGT RAIN  34  32  92 NE24G33   29.55F FOG     WCI  21
FOREST CITY *  LGT RAIN  34  34 100 NE20G29   29.55F WCI  22
WEBSTER CITY * CLOUDY    37  36  93 NE18G32   29.45R WCI  27
IOWA FALLS *   LGT RAIN  37  36  96 NE21G29   29.47F WCI  26
$$

IAZ007>011-017>019-026>030-037>042-050>054-066-221400-
   NORTHEAST IOWA

CITY           SKY/WX    TMP DP  RH WIND       PRES   REMARKS
CEDAR RAPIDS   FOG       41  41 100 E18       29.46F VSB 1/2
CHARLES CITY * RAIN      36  36 100 NE22G31   29.54F WCI  24
CLINTON *      CLOUDY    41  41 100 NW14      29.54R
DECORAH *      CLOUDY    36  36 100 NE15G23   29.58F WCI  26
DUBUQUE        RAIN      37  37 100 NE13      29.56R FOG     WCI  29
MONTICELLO *   CLOUDY    39  39 100 NE8G16    29.51F WCI  34
OELWEIN *      RAIN      36  36 100 NE21G28   29.51F WCI  24
WATERLOO       LGT RAIN  36  35  96 E16       29.50F WCI  26
$$

IAZ064-065-067-068-078-221400-
   EAST CENTRAL IOWA

CITY           SKY/WX    TMP DP  RH WIND       PRES   REMARKS
DAVENPORT      FOG       43  41  93 NE9       29.52F VSB 1/2
IOWA CITY      CLOUDY    44  42  93 NE9       29.48F FOG
MT. PLEASANT * CLOUDY    50  50 100 SE14      29.47R
MUSCATINE *    CLOUDY    45  45 100 E5        29.50S FOG
QUAD CITIES    CLOUDY    49  48  97 CALM      29.49F FOG
$$

IAZ062-063-075>077-085>089-095>099-221400-
   SOUTHEAST IOWA

CITY           SKY/WX    TMP DP  RH WIND       PRES   REMARKS
BURLINGTON     CLOUDY    52  49  89 S10       29.49R
FAIRFIELD *    CLOUDY    52  52 100 SE14      29.42F
FORT MADISON * CLOUDY    52  52 100 SE14G20   29.49S
KEOKUK *       CLOUDY    52  50  93 S12       29.48S
OSKALOOSA *    CLOUDY    47  46  99 E6        29.41F FOG
OTTUMWA        CLOUDY    52  50  93 S16       29.40F
WASHINGTON *   FOG       43  43 100 E9        29.47F VSB 3/4
$$

ABBREVIATIONS USED IN REMARKS
   TC - TEMPERATURES IN CELSIUS
  WCI - WIND CHILL INDEX
   HX - HEAT INDEX
  VSB - VISIBILITY
$$





USA.gov is the U.S. government's official web portal to all federal, state and local government web resources and services.